Weather History for Two Harbors, MN

Change the Weather History Date:

Thursday, January 10, 2013

  Actual Average Record
Temperature  
Mean Temperature 28 °F -  
Max Temperature 41 °F 21 °F 48 °F (2012)
Min Temperature 15 °F 0 °F -28 °F (1982)
Degree Days  
Heating Degree Days 37    
Moisture  
Dew Point 18 °F    
Average Humidity 66    
Maximum Humidity 86    
Minimum Humidity 42    
Precipitation  
Precipitation 0.27 in - - ()
Sea Level Pressure  
Sea Level Pressure 30.07 in    
Wind  
Wind Speed 2 mph (SSE)    
Max Wind Speed 13 mph    
Max Gust Speed 18 mph    
Visibility 9 miles    
Events Rain    
Averages and records for this station are not official NWS values.
T = Trace of Precipitation, MM = Missing Value Source: NWS Daily Summary

Daily Weather History Graph

Daily Weather History Graph

Search for Another Location

Airport:

Trip Planner

Search our weather history database for the weather conditions in past years. The results will help you decide how hot, cold, wet, or windy it might be!

Date:

Astronomy

Jan. 10, 2013 Rise Set
Actual Time 7:51 AM CST 4:38 PM CST
Civil Twilight 7:16 AM CST 5:13 PM CST
Nautical Twilight 6:38 AM CST 5:51 PM CST
Astronomical Twilight 6:01 AM CST 6:28 PM CST
Moon 6:30 AM CST (1/10) 3:47 PM CST (1/10)
Length of Visible Light 9h 57m
Length of Day
8h 47m
Waning Crescent, 2% of the Moon is Illuminated
Jan 10
Waning Crescent
Jan 11
New
Jan 18
First Quarter
Jan 26
Full
Feb 3
Last Quarter

Hourly Weather History & Observations

Time (CST) Temp. Windchill Dew Point Humidity Pressure Visibility Wind Dir Wind Speed Gust Speed Precip Events Conditions
12:11 AM 19.4 °F - 14.0 °F 80% 30.26 in 10.0 mi Calm Calm - N/A   Clear
12:31 AM 19.4 °F - 12.2 °F 74% 30.26 in 10.0 mi Calm Calm - N/A   Clear
12:52 AM 19.4 °F - 12.2 °F 74% 30.27 in 10.0 mi Calm Calm - N/A   Clear
1:11 AM 17.6 °F - 12.2 °F 79% 30.28 in 10.0 mi Calm Calm - N/A   Clear
1:31 AM 17.6 °F 12.3 °F 12.2 °F 79% 30.27 in 10.0 mi NNE 3.5 mph - N/A   Clear
1:52 AM 17.6 °F - 12.2 °F 79% 30.27 in 10.0 mi Calm Calm - N/A   Clear
2:11 AM 15.8 °F - 10.4 °F 79% 30.28 in 10.0 mi Calm Calm - N/A   Clear
2:31 AM 15.8 °F - 10.4 °F 79% 30.28 in 10.0 mi Calm Calm - N/A   Clear
2:52 AM 17.6 °F - 12.2 °F 79% 30.27 in 10.0 mi Calm Calm - N/A   Clear
3:11 AM 15.8 °F 10.2 °F 10.4 °F 79% 30.26 in 10.0 mi East 3.5 mph - N/A   Clear
3:31 AM 17.6 °F - 12.2 °F 79% 30.25 in 10.0 mi Calm Calm - N/A   Clear
3:51 AM 17.6 °F - 12.2 °F 79% 30.25 in 10.0 mi Calm Calm - N/A   Clear
4:11 AM 19.4 °F - 14.0 °F 80% 30.24 in 10.0 mi Calm Calm - N/A   Clear
4:32 AM 19.4 °F - 14.0 °F 80% 30.23 in 10.0 mi Calm Calm - N/A   Clear
4:51 AM 17.6 °F - 12.2 °F 79% 30.22 in 10.0 mi Calm Calm - N/A   Clear
5:11 AM 17.6 °F - 12.2 °F 79% 30.21 in 10.0 mi Calm Calm - N/A   Clear
5:32 AM 19.4 °F - 14.0 °F 80% 30.21 in 10.0 mi Calm Calm - N/A   Clear
6:11 AM 17.6 °F - 12.2 °F 79% 30.19 in 10.0 mi Calm Calm - N/A   Clear
6:32 AM 17.6 °F - 12.2 °F 79% 30.19 in 10.0 mi Calm Calm - N/A   Clear
6:51 AM 17.6 °F - 12.2 °F 79% 30.18 in 10.0 mi Calm Calm - N/A   Clear
7:32 AM 19.4 °F - 14.0 °F 80% 30.19 in 10.0 mi Calm Calm - N/A   Clear
7:51 AM 19.4 °F - 14.0 °F 80% 30.18 in 10.0 mi Calm Calm - N/A   Clear
8:11 AM 19.4 °F - 15.8 °F 86% 30.18 in 10.0 mi Calm Calm - N/A   Clear
8:32 AM 21.2 °F - 15.8 °F 80% 30.17 in 10.0 mi Calm Calm - N/A   Clear
8:51 AM 24.8 °F - 17.6 °F 74% 30.17 in 10.0 mi Calm Calm - N/A   Clear
9:11 AM 26.6 °F - 19.4 °F 74% 30.17 in 10.0 mi Calm Calm - N/A   Clear
9:32 AM 28.4 °F - 19.4 °F 69% 30.16 in 10.0 mi Calm Calm - N/A   Clear
9:51 AM 30.2 °F - 19.4 °F 64% 30.16 in 10.0 mi Calm Calm - N/A   Clear
10:11 AM 33.8 °F 28.6 °F 19.4 °F 56% 30.15 in 10.0 mi SSW 5.8 mph - N/A   Clear
10:32 AM 33.8 °F 28.6 °F 21.2 °F 60% 30.15 in 10.0 mi SSW 5.8 mph - N/A   Clear
10:51 AM 35.6 °F 30.7 °F 21.2 °F 56% 30.15 in 10.0 mi SSW 5.8 mph - N/A   Clear
11:11 AM 37.4 °F 31.4 °F 21.2 °F 52% 30.13 in 10.0 mi South 8.1 mph - N/A   Clear
12:11 PM 37.4 °F 30.8 °F 19.4 °F 48% 30.09 in 10.0 mi SSW 9.2 mph 16.1 mph N/A   Clear
12:32 PM 37.4 °F 30.8 °F 19.4 °F 48% 30.08 in 10.0 mi South 9.2 mph - N/A   Clear
12:51 PM 37.4 °F 31.4 °F 19.4 °F 48% 30.07 in 10.0 mi South 8.1 mph - N/A   Clear
1:11 PM 39.2 °F 31.6 °F 19.4 °F 45% 30.07 in 10.0 mi SSW 12.7 mph 18.4 mph N/A   Clear
1:32 PM 39.2 °F 33.6 °F 19.4 °F 45% 30.06 in 10.0 mi SSW 8.1 mph - N/A   Clear
2:11 PM 41.0 °F 35.8 °F 19.4 °F 42% 30.05 in 10.0 mi South 8.1 mph - N/A   Clear
2:32 PM 41.0 °F 35.8 °F 19.4 °F 42% 30.04 in 10.0 mi South 8.1 mph - N/A   Clear
2:51 PM 39.2 °F 34.2 °F 19.4 °F 45% 30.04 in 10.0 mi South 6.9 mph - N/A   Clear
3:11 PM 39.2 °F 35.0 °F 19.4 °F 45% 30.04 in 10.0 mi South 5.8 mph - N/A   Clear
3:32 PM 39.2 °F 35.0 °F 19.4 °F 45% 30.04 in 10.0 mi South 5.8 mph - N/A   Clear
3:51 PM 37.4 °F 33.8 °F 19.4 °F 48% 30.04 in 10.0 mi South 4.6 mph - N/A   Clear
4:11 PM 39.2 °F 34.2 °F 17.6 °F 42% 30.03 in 10.0 mi South 6.9 mph - N/A   Clear
4:32 PM 37.4 °F 33.8 °F 17.6 °F 45% 30.02 in 10.0 mi South 4.6 mph - N/A   Clear
4:51 PM 35.6 °F - 17.6 °F 48% 30.01 in 10.0 mi Calm Calm - N/A   Clear
5:11 PM 35.6 °F - 15.8 °F 44% 29.99 in 10.0 mi Calm Calm - N/A   Clear
5:32 PM 33.8 °F - 15.8 °F 48% 29.98 in 10.0 mi Calm Calm - N/A   Scattered Clouds
5:51 PM 33.8 °F 30.8 °F 15.8 °F 48% 29.97 in 10.0 mi East 3.5 mph - N/A   Scattered Clouds
6:11 PM 33.8 °F 29.6 °F 17.6 °F 52% 29.95 in 10.0 mi ENE 4.6 mph - N/A   Clear
6:32 PM 33.8 °F - 19.4 °F 56% 29.94 in 10.0 mi Calm Calm - N/A   Mostly Cloudy
6:51 PM 35.6 °F - 19.4 °F 52% 29.93 in 10.0 mi Calm Calm - N/A   Overcast
7:11 PM 35.6 °F - 19.4 °F 52% 29.92 in 10.0 mi Calm Calm - N/A   Scattered Clouds
7:32 PM 35.6 °F - 19.4 °F 52% 29.90 in 10.0 mi Calm Calm - N/A   Light Drizzle
7:51 PM 35.6 °F - 21.2 °F 56% 29.89 in 10.0 mi Calm Calm - N/A Rain Light Rain
8:11 PM 33.8 °F - 24.8 °F 70% 29.88 in 10.0 mi Calm Calm - N/A Rain Light Rain
8:32 PM 33.8 °F 29.6 °F 24.8 °F 70% 29.86 in 10.0 mi East 4.6 mph - N/A Rain Light Rain
8:51 PM 35.6 °F 29.9 °F 24.8 °F 65% 29.85 in 10.0 mi East 6.9 mph - N/A Rain Light Rain
9:11 PM 33.8 °F 28.6 °F 26.6 °F 75% 29.83 in 7.0 mi East 5.8 mph - 0.02 in Rain Rain
9:32 PM 33.8 °F 27.7 °F 26.6 °F 75% 29.83 in 10.0 mi SSE 6.9 mph - 0.03 in Rain Light Rain
9:51 PM 33.8 °F - 26.6 °F 75% 29.81 in 5.0 mi Calm Calm - 0.05 in Rain Light Rain
10:11 PM 33.8 °F 29.6 °F 26.6 °F 75% 29.79 in 5.0 mi ENE 4.6 mph - 0.02 in Rain Rain
10:31 PM 32.0 °F - 26.6 °F 80% 29.78 in 3.0 mi Calm Calm - 0.09 in Rain Rain
10:51 PM 32.0 °F - 26.6 °F 80% 29.77 in 3.0 mi Calm Calm - 0.14 in Rain Rain
11:11 PM 32.0 °F 28.7 °F 26.6 °F 80% 29.75 in 4.0 mi East 3.5 mph - 0.02 in Rain Light Rain
11:31 PM 32.0 °F 26.4 °F 26.6 °F 80% 29.74 in 4.0 mi East 5.8 mph - 0.05 in Rain Light Rain
11:52 PM 32.0 °F 27.5 °F 26.6 °F 80% 29.73 in 4.0 mi East 4.6 mph - 0.08 in Rain Light Rain